Alexandria, MN

7:22 PM CDT on October 23, 2017 (GMT -0500)
Chandler

Weather History for KAXN - November, 2012

Change the Weather History Date:

Friday, November 2, 2012

  Actual Average Record
Temperature  
Mean Temperature 30 °F -  
Max Temperature 36 °F 44 °F 72 °F (1978)
Min Temperature 25 °F 28 °F -2 °F (1951)
Degree Days  
Heating Degree Days 34    
Moisture  
Dew Point 23 °F    
Average Humidity 72    
Maximum Humidity 85    
Minimum Humidity 59    
Precipitation  
Precipitation 0.00 in - - ()
Sea Level Pressure  
Sea Level Pressure 30.17 in    
Wind  
Wind Speed 6 mph (ENE)    
Max Wind Speed 10 mph    
Max Gust Speed -    
Visibility 10 miles    
Events      
Averages and records for this station are not official NWS values.
T = Trace of Precipitation, MM = Missing Value Source: NWS Daily Summary

Daily Weather History Graph

Daily Weather History Graph

Search for Another Location

Airport or City:

Trip Planner

Search our weather history database for the weather conditions in past years. The results will help you decide how hot, cold, wet, or windy it might be!

Date:

Astronomy

Nov. 02, 2012 Rise Set
Actual Time 8:03 AM CDT 6:05 PM CDT
Civil Twilight 7:32 AM CDT 6:36 PM CDT
Nautical Twilight 6:57 AM CDT 7:12 PM CDT
Astronomical Twilight 6:22 AM CDT 7:46 PM CDT
Moon 8:47 PM CDT (11/2) 11:31 AM CDT (11/2)
Length of Visible Light 11h 04m
Length of Day
10h 01m
Waning Gibbous, 87% of the Moon is Illuminated
Nov 2
Waning Gibbous
Nov 6
Last Quarter
Nov 13
New
Nov 20
First Quarter
Nov 28
Full

Hourly Weather History & Observations

Time (CDT) Temp. Windchill Dew Point Humidity Pressure Visibility Wind Dir Wind Speed Gust Speed Precip Events Conditions
12:53 AM 27.0 °F 20.5 °F 19.9 °F 75% 30.14 in 10.0 mi NE 5.8 mph - N/A   Clear
1:53 AM 27.0 °F 18.0 °F 19.9 °F 75% 30.13 in 10.0 mi ENE 9.2 mph - N/A   Clear
2:53 AM 25.0 °F 18.1 °F 19.9 °F 81% 30.14 in 10.0 mi ENE 5.8 mph - N/A   Clear
3:53 AM 27.0 °F 19.5 °F 21.9 °F 81% 30.14 in 10.0 mi East 6.9 mph - N/A   Clear
4:53 AM 27.0 °F 18.0 °F 21.9 °F 81% 30.13 in 10.0 mi ENE 9.2 mph - N/A   Clear
5:53 AM 27.0 °F 17.3 °F 21.9 °F 81% 30.15 in 10.0 mi East 10.4 mph - N/A   Clear
6:53 AM 27.0 °F 19.5 °F 23.0 °F 85% 30.16 in 10.0 mi East 6.9 mph - N/A   Clear
7:53 AM 28.0 °F 20.8 °F 23.0 °F 81% 30.17 in 10.0 mi ENE 6.9 mph - N/A   Clear
8:53 AM 28.9 °F 20.4 °F 24.1 °F 82% 30.18 in 10.0 mi ENE 9.2 mph - N/A   Clear
9:53 AM 30.0 °F 24.1 °F 24.1 °F 79% 30.21 in 10.0 mi ENE 5.8 mph - N/A   Scattered Clouds
10:10 AM 30.2 °F 23.4 °F 24.8 °F 80% 30.15 in 10.0 mi East 6.9 mph - N/A   Mostly Cloudy
10:26 AM 30.2 °F 24.3 °F 24.8 °F 80% 30.16 in 10.0 mi ENE 5.8 mph - N/A   Scattered Clouds
10:53 AM 32.0 °F 25.6 °F 24.1 °F 73% 30.21 in 10.0 mi East 6.9 mph - N/A   Partly Cloudy
11:53 AM 32.0 °F 25.6 °F 24.1 °F 73% 30.20 in 10.0 mi ESE 6.9 mph - N/A   Clear
12:53 PM 33.1 °F 27.7 °F 25.0 °F 72% 30.21 in 10.0 mi East 5.8 mph - N/A   Clear
1:53 PM 35.1 °F 32.2 °F 24.1 °F 64% 30.18 in 10.0 mi Variable 3.5 mph - N/A   Mostly Cloudy
2:53 PM 36.0 °F - 24.1 °F 62% 30.17 in 10.0 mi Calm Calm - N/A   Overcast
3:53 PM 36.0 °F 32.1 °F 24.1 °F 62% 30.17 in 10.0 mi East 4.6 mph - N/A   Overcast
4:53 PM 35.1 °F 30.1 °F 24.1 °F 64% 30.17 in 10.0 mi ENE 5.8 mph - N/A   Overcast
5:53 PM 35.1 °F 31.0 °F 24.1 °F 64% 30.17 in 10.0 mi East 4.6 mph - N/A   Overcast
6:53 PM 36.0 °F 32.1 °F 23.0 °F 59% 30.19 in 10.0 mi NE 4.6 mph - N/A   Overcast
7:53 PM 35.1 °F 31.0 °F 21.9 °F 59% 30.20 in 10.0 mi ENE 4.6 mph - N/A   Overcast
8:53 PM 35.1 °F 32.2 °F 23.0 °F 61% 30.19 in 10.0 mi ESE 3.5 mph - N/A   Overcast
9:53 PM 34.0 °F 29.8 °F 23.0 °F 64% 30.20 in 10.0 mi East 4.6 mph - N/A   Overcast
10:53 PM 34.0 °F - 23.0 °F 64% 30.21 in 10.0 mi Calm Calm - N/A   Overcast
11:53 PM 34.0 °F - 24.1 °F 67% 30.21 in 10.0 mi Calm Calm - N/A   Overcast